Voltar ao catálogo

STARLINK-35787

AtivoComunicaçõesVLEO
NORAD 66978·PAYLOAD·🇺🇸 United States

Lançado Dec 8, 2025 de Cape Canaveral Space Force Station

Loading…

Próximas Passagens (próximas 24 horas)

TLE

AtualizadoSource: CelesTrak SupGP

Época: Sep 15, 2026, 03:49 UTC

1 66978C 25288V   26258.15951389  .00003313  00000+0  11999-3 0  2584
2 66978  43.0011  33.1497 0001568 267.7828 234.3770 15.27575440    11

Acompanhe STARLINK-35787 em tempo real com AllMySat

Download on the App Store